[[{"header":{"parameterUnit":"m.s-1","parameterCategory":1,"la1":30.2991,"la2":30.254,"lo1":-89.0895,"lo2":-89.0444,"dy":0.0017,"dx":0.0017,"nx":28,"ny":28,"refTime":"2024-03-22T21:00:00:Z","depth":0,"parameterNumber":2,"parameterNumberName":"U-component_of_WINDS"},"data":[0,0,0,0,0,0,0,0,0,0,0,0,0,0,0,0,0,0,0,0,0,0,0,0,0,0,0,0,0,0,0,0,0,0,0,0,0,0,0,0,0,0,0,0,0,0,0,0,0,0,0,0,0,0,0,0,0,0,-5.1457,-5.1457,0,-5.1466,-5.1466,-5.1466,-5.1348,-5.1344,-5.1341,-5.1338,-5.1349,-5.1352,-5.1355,0,0,0,0,0,0,0,0,0,0,0,0,0,-5.1337,-5.134,-5.1457,-5.1457,-5.1457,-5.1466,-5.1466,-5.1466,-5.1348,-5.1344,-5.134,-5.1337,-5.1348,-5.1351,-5.1355,0,0,0,0,0,0,0,0,0,0,0,0,0,-5.1372,-5.1341,-5.1457,-5.1399,-5.1394,-5.1466,-5.1466,-5.1466,-5.1349,-5.1344,-5.1339,-5.1335,-5.1346,-5.1351,-5.1356,-5.1484,0,0,-5.1371,-5.1373,0,0,0,0,0,0,0,0,-5.137,-5.1377,-5.1408,-5.1403,-5.1398,-5.1401,-5.1428,-5.1472,-5.135,-5.1366,-5.1338,-5.1332,-5.137,-5.1373,-5.1385,-5.1484,-5.1485,-5.1371,-5.1374,-5.1377,-5.1378,0,0,0,0,0,0,0,-5.1368,-5.1376,-5.146,-5.1408,-5.1402,-5.1373,-5.1373,-5.1436,-5.1395,-5.1364,-5.1356,-5.1359,-5.1366,-5.1381,-5.1384,-5.1485,-5.1371,-5.1376,-5.1379,-5.1381,-5.169,-5.1694,0,0,0,0,0,0,-5.1373,-5.1374,-5.146,-5.1461,-5.1372,-5.1379,-5.1379,-5.1405,-5.1394,-5.1388,-5.1363,-5.1353,-5.1375,-5.1379,-5.1384,-5.1533,-5.1377,-5.1381,-5.1384,-5.1684,-5.1691,-5.1696,0,0,0,0,0,0,-5.1371,-5.1382,-5.146,-5.1415,-5.1423,-5.1386,-5.1417,-5.1408,-5.1422,-5.1393,-5.1385,-5.1385,-5.1371,-5.1377,-5.146,-5.1532,-5.1383,-5.1388,-5.1678,-5.1686,-5.1694,-5.1832,0,0,0,0,0,0,-5.1368,-5.1382,-5.143,-5.1417,-5.1426,-5.1536,-5.1421,-5.1411,-5.143,-5.1418,-5.1412,-5.1406,-5.1368,-5.1453,-5.1465,-5.1536,-5.1392,-5.1672,-5.1682,-5.1691,-5.1821,-5.1844,-5.1864,0,0,0,0,0,-5.1364,-5.1469,-5.1433,-5.1444,-5.1485,-5.154,-5.1545,-5.1498,-5.1437,-5.1485,-5.1466,-5.1406,-5.1522,-5.1463,-5.1475,-5.1549,-5.1667,-5.1679,-5.169,-5.1812,-5.184,-5.1863,0,0,0,0,0,0,-5.1492,-5.1466,-5.1426,-5.153,-5.1538,-5.152,-5.1579,-5.1529,-5.1555,-5.1542,-5.1484,-5.1484,-5.1576,-5.157,-5.1504,-5.1672,-5.1584,-5.1599,-5.1672,-5.1698,-5.1719,-5.1718,-5.1396,0,0,0,0,0,-5.1532,-5.1578,-5.1554,-5.1647,-5.1654,-5.1616,-5.1638,-5.1602,-5.1608,-5.1611,-5.1598,-5.1606,-5.1644,-5.1671,-5.1705,-5.182,-5.1817,-5.1877,-5.1898,-5.1916,-5.1929,-5.1989,-5.2016,-5.1735,-5.1735,-5.1735,0,0,-5.1615,-5.1607,-5.164,-5.1673,-5.1675,-5.1724,-5.162,-5.1676,-5.1712,-5.1619,-5.1696,-5.1688,-5.1693,-5.1793,-5.1836,-5.1791,-5.2006,-5.1931,-5.1945,-5.1948,-5.2004,-5.2031,-5.2054,-5.1743,-5.1742,-5.174,0,0,-5.1792,-5.1791,-5.1869,-5.1873,-5.1877,-5.1851,-5.187,-5.186,-5.185,-5.1927,-5.1858,-5.19,-5.1967,-5.1974,-5.1986,-5.2166,-5.2112,-5.2179,-5.229,-5.2349,-5.2371,-5.2391,-5.2455,-5.2478,-5.2193,-5.2193,-5.2193,0,-5.1895,-5.1967,-5.1915,-5.1977,-5.1993,-5.1911,-5.1989,-5.1996,-5.2011,-5.2025,-5.1974,-5.2057,-5.2055,-5.2154,-5.2199,-5.2211,-5.2231,-5.2179,-5.2372,-5.2391,-5.2408,-5.2469,-5.2493,-5.2201,-5.22,-5.2199,-5.2199,0,-5.2093,-5.2144,-5.2207,-5.2223,-5.2247,-5.2317,-5.2276,-5.2306,-5.2268,-5.2248,-5.2326,-5.2321,-5.2352,-5.2373,-5.2337,-5.2468,-5.244,-5.2382,-5.2292,-5.2444,-5.25,-5.2523,-5.2213,-5.221,-5.2207,-5.2205,0,0,-5.235,-5.2338,-5.2361,-5.2368,-5.2367,-5.2405,-5.2471,-5.2501,-5.2528,-5.2542,-5.2596,-5.2655,-5.2601,-5.2615,-5.2579,-5.2631,-5.2774,-5.2566,-5.2565,-5.2605,-5.2918,-5.2962,-5.299,-5.2738,-5.2742,-5.2745,-5.2918,0,-5.2522,-5.2634,-5.259,-5.2706,-5.2752,-5.2675,-5.2732,-5.2738,-5.2721,-5.2758,-5.2739,-5.2782,-5.2708,-5.2716,-5.2764,-5.2746,-5.2836,-5.2733,-5.2788,-5.279,-5.2788,-5.3019,-5.3065,-5.3228,-5.2939,-5.2943,-5.2946,0,-5.2738,-5.276,-5.288,-5.2871,-5.2889,-5.2941,-5.2965,-5.3002,-5.3007,-5.299,-5.3007,-5.2959,-5.3023,-5.2934,-5.3022,-5.2953,-5.2973,-5.2968,-5.2973,-5.2976,-5.2877,-5.3028,-5.3278,-5.3303,-5.298,-5.2977,-5.2974,0,-5.2913,-5.2973,-5.3052,-5.306,-5.3052,-5.309,-5.3089,-5.3089,-5.311,-5.3131,-5.3144,-5.3173,-5.3189,-5.3212,-5.3173,-5.3112,-5.3267,-5.3175,-5.3255,-5.3257,-5.3291,-5.3289,-5.3548,-5.3305,-5.3305,-5.3304,-5.3304,0,-5.3109,-5.3186,-5.3131,-5.318,-5.3264,-5.3212,-5.3296,-5.3286,-5.3287,-5.3333,-5.3268,-5.3312,-5.3258,-5.3298,-5.3268,-5.3345,-5.3353,-5.3342,-5.3333,-5.3347,-5.3349,-5.3359,-5.3347,-5.3311,-5.3309,-5.3308,-5.3307,0,-5.3318,-5.3285,-5.3366,-5.3352,-5.335,-5.3412,-5.3399,-5.3444,-5.3423,-5.3481,-5.3492,-5.3459,-5.3502,-5.3466,-5.3507,-5.3487,-5.359,-5.3565,-5.3588,-5.3581,-5.3664,-5.3656,-5.3938,-5.3972,-5.3708,-5.371,-5.3712,0,-5.3446,-5.3503,-5.3494,-5.352,-5.3522,-5.3565,-5.3586,-5.3538,-5.3562,-5.3573,-5.3616,-5.3654,-5.3681,-5.3753,-5.3733,-5.3765,-5.374,-5.3836,-5.3744,-5.3757,-5.3741,-5.3738,-5.3743,-5.3855,-5.3858,-5.3861,-5.3863,0,-5.3675,-5.3656,-5.3688,-5.3716,-5.3743,-5.3762,-5.3776,-5.3801,-5.3752,-5.3783,-5.3826,-5.3847,-5.389,-5.3928,-5.3953,-5.3951,-5.3899,-5.3892,-5.3912,-5.3927,-5.3938,-5.3933,-5.3639,-5.3886,-5.3883,-5.3882,-5.3881,-5.388,-5.3847,-5.3894,-5.3895,-5.3934,-5.3939,-5.3954,-5.3995,-5.3979,-5.4014,-5.4045,-5.4015,-5.4067,-5.407,-5.4099,-5.4103,-5.4143,-5.4103,-5.4133,-5.414,-5.4148,-5.416,-5.3933,-5.4148,-5.4147,-5.4146,-5.4146,-5.4145,0,-5.4072,-5.4069,-5.4105,-5.4127,-5.4158,-5.4106,-5.4119,-5.4149,-5.4195,-5.4203,-5.4231,-5.4281,-5.4318,-5.4301,-5.4332,-5.4368,-5.4345,-5.4378,-5.4375,-5.4375,-5.4194,-5.4173,-5.4396,-5.4396,-5.4396,-5.4396,-5.4396,-5.4396,-5.4193,-5.427,-5.4251,-5.433,-5.4326,-5.4377,-5.4389,-5.4402,-5.4408,-5.4466,-5.4496,-5.4485,-5.4483,-5.4514,-5.4545,-5.4539,-5.4554,-5.4596,-5.4581,-5.4412,-5.4388,-5.4364,-5.4344,-5.4599,-5.46,-5.4758,-5.476,-5.4761]},{"header":{"parameterUnit":"m.s-1","parameterCategory":1,"la1":30.2991,"la2":30.254,"lo1":-89.0895,"lo2":-89.0444,"dy":0.0017,"dx":0.0017,"nx":28,"ny":28,"refTime":"2024-03-22T21:00:00:Z","depth":0,"parameterNumber":3,"parameterNumberName":"V-component_of_WINDS"},"data":[0,0,0,0,0,0,0,0,0,0,0,0,0,0,0,0,0,0,0,0,0,0,0,0,0,0,0,0,0,0,0,0,0,0,0,0,0,0,0,0,0,0,0,0,0,0,0,0,0,0,0,0,0,0,0,0,0,0,-0.4737,-0.4737,0,-0.4772,-0.4773,-0.4773,-0.4769,-0.4768,-0.4767,-0.4767,-0.4804,-0.4805,-0.4807,0,0,0,0,0,0,0,0,0,0,0,0,0,-0.4665,-0.4666,-0.4737,-0.4737,-0.4738,-0.4772,-0.4773,-0.4773,-0.4769,-0.4768,-0.4767,-0.4767,-0.4803,-0.4805,-0.4807,0,0,0,0,0,0,0,0,0,0,0,0,0,-0.4698,-0.4667,-0.4737,-0.474,-0.474,-0.4772,-0.4773,-0.4773,-0.4769,-0.4768,-0.4767,-0.4766,-0.4803,-0.4805,-0.4807,-0.4838,0,0,-0.4814,-0.4815,0,0,0,0,0,0,0,0,-0.4696,-0.4701,-0.4739,-0.474,-0.474,-0.4765,-0.4761,-0.4795,-0.4769,-0.4758,-0.4767,-0.4766,-0.4792,-0.4795,-0.4803,-0.484,-0.4842,-0.4814,-0.4816,-0.4817,-0.4817,0,0,0,0,0,0,0,-0.4694,-0.4699,-0.4751,-0.4739,-0.474,-0.4739,-0.4743,-0.4767,-0.4779,-0.4759,-0.4759,-0.4763,-0.4792,-0.4801,-0.4804,-0.4842,-0.4814,-0.4816,-0.4818,-0.4819,-0.4905,-0.4906,0,0,0,0,0,0,-0.4691,-0.4697,-0.475,-0.4752,-0.4716,-0.4741,-0.4745,-0.4758,-0.4779,-0.4781,-0.4764,-0.4763,-0.4798,-0.4801,-0.4805,-0.4843,-0.4817,-0.4819,-0.482,-0.4904,-0.4905,-0.4906,0,0,0,0,0,0,-0.4689,-0.4696,-0.4748,-0.4725,-0.4731,-0.4743,-0.4758,-0.4759,-0.4768,-0.4782,-0.4785,-0.4771,-0.4797,-0.4802,-0.483,-0.4844,-0.482,-0.4822,-0.4903,-0.4904,-0.4906,-0.4918,0,0,0,0,0,0,-0.4687,-0.4695,-0.4707,-0.4725,-0.4732,-0.4773,-0.4759,-0.476,-0.4772,-0.4771,-0.479,-0.4792,-0.4797,-0.4826,-0.4832,-0.4847,-0.4824,-0.4902,-0.4904,-0.4905,-0.4916,-0.492,-0.4922,0,0,0,0,0,-0.4685,-0.471,-0.4708,-0.4715,-0.4748,-0.4773,-0.4778,-0.4782,-0.4773,-0.4786,-0.4794,-0.4792,-0.4841,-0.4829,-0.4836,-0.4851,-0.4901,-0.4903,-0.4905,-0.4915,-0.4919,-0.4922,0,0,0,0,0,0,-0.4695,-0.4712,-0.4711,-0.4742,-0.4756,-0.4773,-0.4789,-0.4787,-0.4804,-0.4802,-0.4807,-0.4811,-0.4839,-0.4848,-0.4834,-0.4882,-0.487,-0.4873,-0.4875,-0.4879,-0.4882,-0.488,-0.4826,0,0,0,0,0,-0.4701,-0.472,-0.4734,-0.4761,-0.4768,-0.4777,-0.4788,-0.479,-0.4805,-0.4811,-0.4822,-0.4836,-0.4855,-0.4867,-0.4886,-0.4917,-0.4921,-0.4931,-0.4934,-0.4936,-0.4939,-0.4955,-0.496,-0.4913,-0.4913,-0.4913,0,0,-0.4713,-0.4725,-0.4737,-0.4763,-0.4774,-0.4793,-0.4782,-0.4803,-0.4817,-0.4814,-0.4841,-0.4849,-0.4865,-0.4895,-0.4908,-0.4903,-0.4952,-0.4939,-0.494,-0.4942,-0.4958,-0.4962,-0.4966,-0.4914,-0.4914,-0.4914,0,0,-0.4746,-0.4757,-0.478,-0.4791,-0.4807,-0.4813,-0.4818,-0.4834,-0.4839,-0.4866,-0.4863,-0.488,-0.4913,-0.4924,-0.4934,-0.4968,-0.4966,-0.4974,-0.499,-0.5006,-0.5009,-0.5013,-0.5024,-0.5029,-0.4977,-0.4977,-0.4977,0,-0.4759,-0.4788,-0.4792,-0.4813,-0.4824,-0.4821,-0.4843,-0.4854,-0.4876,-0.4883,-0.4876,-0.4916,-0.4927,-0.4958,-0.4966,-0.4975,-0.4981,-0.4973,-0.5009,-0.5012,-0.5015,-0.5026,-0.5031,-0.4978,-0.4978,-0.4978,-0.4978,0,-0.4804,-0.4824,-0.484,-0.486,-0.4873,-0.4895,-0.4901,-0.4913,-0.4914,-0.492,-0.4946,-0.4958,-0.4978,-0.4986,-0.4987,-0.5017,-0.5013,-0.5007,-0.4996,-0.502,-0.5031,-0.5035,-0.4979,-0.4979,-0.4979,-0.4978,0,0,-0.4846,-0.4866,-0.4872,-0.488,-0.4897,-0.4912,-0.4933,-0.4952,-0.4962,-0.4977,-0.4994,-0.5021,-0.5015,-0.5026,-0.5028,-0.5042,-0.5067,-0.5035,-0.5035,-0.504,-0.51,-0.5104,-0.511,-0.5065,-0.5066,-0.5067,-0.5099,0,-0.488,-0.4917,-0.4919,-0.4953,-0.497,-0.4967,-0.4985,-0.4997,-0.5002,-0.5018,-0.5024,-0.5043,-0.5034,-0.5041,-0.5054,-0.5061,-0.508,-0.5059,-0.5082,-0.5082,-0.5078,-0.5115,-0.512,-0.515,-0.5103,-0.5104,-0.5104,0,-0.4925,-0.494,-0.4974,-0.4987,-0.4995,-0.5011,-0.5028,-0.5043,-0.5056,-0.5059,-0.507,-0.507,-0.5091,-0.5078,-0.5106,-0.5092,-0.5101,-0.5106,-0.5107,-0.511,-0.5095,-0.5119,-0.5159,-0.5164,-0.5111,-0.511,-0.511,0,-0.4951,-0.498,-0.5004,-0.5011,-0.5027,-0.5038,-0.5045,-0.5057,-0.5068,-0.5082,-0.5089,-0.5106,-0.5115,-0.5128,-0.5132,-0.5122,-0.516,-0.5147,-0.5163,-0.5162,-0.5171,-0.5171,-0.5214,-0.5177,-0.5177,-0.5177,-0.5177,0,-0.4989,-0.501,-0.5016,-0.5031,-0.5054,-0.5056,-0.5079,-0.5085,-0.5096,-0.5112,-0.5109,-0.5124,-0.5128,-0.5143,-0.5146,-0.5169,-0.5173,-0.5176,-0.5177,-0.5176,-0.5176,-0.5183,-0.5181,-0.5178,-0.5178,-0.5177,-0.5177,0,-0.5023,-0.5027,-0.5053,-0.5065,-0.5069,-0.5085,-0.5096,-0.5109,-0.5114,-0.5134,-0.5138,-0.5146,-0.5163,-0.5168,-0.519,-0.5192,-0.5218,-0.5217,-0.5214,-0.5214,-0.5229,-0.5227,-0.5278,-0.5284,-0.5243,-0.5243,-0.5244,0,-0.5047,-0.5063,-0.5076,-0.5086,-0.5093,-0.511,-0.512,-0.5122,-0.5133,-0.5148,-0.516,-0.5177,-0.5191,-0.522,-0.5227,-0.5243,-0.5242,-0.5258,-0.5244,-0.5243,-0.5242,-0.5241,-0.5242,-0.5261,-0.5262,-0.5262,-0.5262,0,-0.5089,-0.5089,-0.5104,-0.512,-0.5132,-0.5144,-0.5156,-0.5164,-0.5168,-0.518,-0.5197,-0.5208,-0.5229,-0.5246,-0.5262,-0.5269,-0.5266,-0.5266,-0.5271,-0.5271,-0.5268,-0.5269,-0.5221,-0.5266,-0.5265,-0.5265,-0.5265,-0.5265,-0.5118,-0.5132,-0.5143,-0.5159,-0.5167,-0.5178,-0.5191,-0.5197,-0.5211,-0.5228,-0.5229,-0.5248,-0.5259,-0.5279,-0.5287,-0.5302,-0.5297,-0.5303,-0.5305,-0.5307,-0.5308,-0.5265,-0.5305,-0.5305,-0.5305,-0.5304,-0.5304,0,-0.5159,-0.5166,-0.5181,-0.5196,-0.5209,-0.5204,-0.5216,-0.5227,-0.5244,-0.5254,-0.5267,-0.5287,-0.5303,-0.531,-0.5326,-0.5336,-0.5335,-0.534,-0.5339,-0.5341,-0.5311,-0.5306,-0.534,-0.534,-0.534,-0.534,-0.534,-0.534,-0.5182,-0.5205,-0.5207,-0.5233,-0.5239,-0.5257,-0.5265,-0.5274,-0.5282,-0.5304,-0.5317,-0.5321,-0.533,-0.5346,-0.536,-0.5362,-0.5368,-0.5373,-0.5374,-0.5347,-0.5343,-0.534,-0.5335,-0.5375,-0.5375,-0.5403,-0.5403,-0.5403]}]]